[[{"header":{"parameterUnit":"m.s-1","parameterCategory":2,"la1":30.2991,"la2":30.254,"lo1":-89.0895,"lo2":-89.0444,"dy":0.0017,"dx":0.0017,"nx":28,"ny":28,"refTime":"2025-06-11T03:00:00:Z","depth":"0","parameterNumber":2,"parameterNumberName":"U-component_of_CURRENTS"},"data":[0,0,0,0,0,0,0,0,0,0,0,0,0,0,0,0,0,0,0,0,0,0,0,0,0,0,0,0,0,0,0,0,0,0,0,0,0,0,0,0,0,0,0,0,0,0,0,0,0,0,0,0,0,0,0,0,0,0,-0.2136,-0.2136,0,-0.2117,-0.2116,-0.2116,-0.2031,-0.2029,-0.2027,-0.2026,-0.1901,-0.19,-0.1898,0,0,0,0,0,0,0,0,0,0,0,0,0,-0.2133,-0.2133,-0.2136,-0.2136,-0.2136,-0.2117,-0.2116,-0.2116,-0.2031,-0.2029,-0.2027,-0.2025,-0.1902,-0.19,-0.1898,0,0,0,0,0,0,0,0,0,0,0,0,0,-0.2124,-0.2133,-0.2136,-0.2093,-0.2089,-0.2117,-0.2116,-0.2116,-0.2032,-0.2029,-0.2026,-0.2024,-0.1902,-0.19,-0.1898,-0.1936,0,0,-0.189,-0.1889,0,0,0,0,0,0,0,0,-0.2124,-0.2124,-0.2099,-0.2096,-0.2092,-0.2075,-0.207,-0.2051,-0.2032,-0.2051,-0.2026,-0.2022,-0.1953,-0.1946,-0.1947,-0.193,-0.1925,-0.189,-0.1888,-0.1887,-0.1887,0,0,0,0,0,0,0,-0.2125,-0.2124,-0.2126,-0.2099,-0.2095,-0.2086,-0.2081,-0.2066,-0.2014,-0.2049,-0.2044,-0.2046,-0.195,-0.195,-0.1943,-0.1923,-0.189,-0.1888,-0.1886,-0.1885,-0.1998,-0.2003,0,0,0,0,0,0,-0.2133,-0.2125,-0.2127,-0.2126,-0.2104,-0.2089,-0.2083,-0.2081,-0.2016,-0.2005,-0.2048,-0.2042,-0.1955,-0.1946,-0.1938,-0.2008,-0.1887,-0.1885,-0.1884,-0.1994,-0.1999,-0.2004,0,0,0,0,0,0,-0.2133,-0.2134,-0.2127,-0.2127,-0.2125,-0.2091,-0.209,-0.2083,-0.2082,-0.2017,-0.2002,-0.2055,-0.1953,-0.1942,-0.1957,-0.2001,-0.1884,-0.1882,-0.1989,-0.1996,-0.2002,-0.2129,0,0,0,0,0,0,-0.2133,-0.2134,-0.2138,-0.2127,-0.2126,-0.2182,-0.2093,-0.2084,-0.2089,-0.208,-0.2019,-0.2004,-0.195,-0.1962,-0.1955,-0.1996,-0.188,-0.1983,-0.1992,-0.2,-0.2119,-0.2139,-0.2157,0,0,0,0,0,-0.2133,-0.2162,-0.2138,-0.2139,-0.2132,-0.2185,-0.2186,-0.215,-0.2092,-0.213,-0.2082,-0.2006,-0.201,-0.1963,-0.1954,-0.1995,-0.1979,-0.1989,-0.1999,-0.2111,-0.2136,-0.2156,0,0,0,0,0,0,-0.2165,-0.2156,-0.2129,-0.2152,-0.2181,-0.2172,-0.2192,-0.2166,-0.2159,-0.2132,-0.2055,-0.2042,-0.2074,-0.2037,-0.1988,-0.2063,-0.1986,-0.1995,-0.2075,-0.2097,-0.2115,-0.2097,-0.1878,0,0,0,0,0,-0.2175,-0.2182,-0.2194,-0.2211,-0.223,-0.2211,-0.2222,-0.2206,-0.2197,-0.2189,-0.2146,-0.2114,-0.2114,-0.2105,-0.2099,-0.2135,-0.206,-0.2164,-0.2183,-0.2198,-0.2185,-0.2124,-0.2133,-0.2037,-0.2037,-0.2037,0,0,-0.2184,-0.2183,-0.2182,-0.2217,-0.2221,-0.2271,-0.2212,-0.2247,-0.2276,-0.2178,-0.2197,-0.2175,-0.2143,-0.2185,-0.2196,-0.2152,-0.2197,-0.2211,-0.2224,-0.2201,-0.2135,-0.2143,-0.215,-0.2044,-0.2043,-0.2042,0,0,-0.2228,-0.2218,-0.2248,-0.2284,-0.2314,-0.2319,-0.2338,-0.2349,-0.2346,-0.238,-0.232,-0.2334,-0.2321,-0.2317,-0.2308,-0.2435,-0.2301,-0.2438,-0.2502,-0.2445,-0.245,-0.2453,-0.2393,-0.239,-0.2441,-0.2442,-0.2442,0,-0.2237,-0.2269,-0.2274,-0.2329,-0.235,-0.2347,-0.24,-0.2424,-0.2435,-0.2432,-0.2404,-0.2398,-0.2385,-0.2418,-0.2472,-0.2471,-0.24,-0.2409,-0.2461,-0.2463,-0.2464,-0.2401,-0.2396,-0.2449,-0.2448,-0.2447,-0.2447,0,-0.2312,-0.234,-0.2372,-0.242,-0.2464,-0.2513,-0.2548,-0.258,-0.2561,-0.2558,-0.2585,-0.2575,-0.2554,-0.2586,-0.2562,-0.2589,-0.2526,-0.2488,-0.2385,-0.248,-0.241,-0.2402,-0.246,-0.2457,-0.2455,-0.2453,0,0,-0.2307,-0.2399,-0.2408,-0.2425,-0.2507,-0.2537,-0.2615,-0.2665,-0.2661,-0.2697,-0.268,-0.2748,-0.2705,-0.2698,-0.2679,-0.2656,-0.2639,-0.258,-0.2573,-0.2487,-0.2487,-0.2431,-0.2416,-0.2582,-0.2581,-0.258,-0.2441,0,-0.2353,-0.2443,-0.249,-0.2562,-0.26,-0.2637,-0.2694,-0.2734,-0.2743,-0.2736,-0.2745,-0.2734,-0.276,-0.2731,-0.2726,-0.2642,-0.2619,-0.2679,-0.2437,-0.243,-0.2339,-0.2406,-0.2281,-0.2144,-0.2432,-0.2431,-0.243,0,-0.2401,-0.2444,-0.2524,-0.2581,-0.2602,-0.2649,-0.2684,-0.2737,-0.2762,-0.2761,-0.2768,-0.2741,-0.2751,-0.273,-0.2654,-0.2674,-0.26,-0.2542,-0.2534,-0.242,-0.2358,-0.2096,-0.2117,-0.2114,-0.2416,-0.2417,-0.2418,0,-0.2345,-0.2458,-0.2501,-0.253,-0.2615,-0.2638,-0.2676,-0.2724,-0.2732,-0.2751,-0.2724,-0.2734,-0.2697,-0.2631,-0.2569,-0.2579,-0.2434,-0.2424,-0.2312,-0.2306,-0.2122,-0.2102,-0.2075,-0.2352,-0.2353,-0.2353,-0.2353,0,-0.2345,-0.2368,-0.2469,-0.2478,-0.2489,-0.2585,-0.2585,-0.2627,-0.2662,-0.2658,-0.2709,-0.2681,-0.2662,-0.2592,-0.2532,-0.2399,-0.2406,-0.232,-0.2266,-0.2172,-0.2158,-0.2083,-0.2116,-0.2348,-0.2349,-0.235,-0.2351,0,-0.2236,-0.2328,-0.2346,-0.2433,-0.245,-0.2439,-0.2493,-0.2502,-0.2568,-0.2553,-0.2554,-0.2599,-0.2524,-0.2488,-0.2366,-0.2335,-0.2173,-0.2168,-0.2069,-0.2009,-0.1914,-0.1959,-0.186,-0.1812,-0.2011,-0.2008,-0.2006,0,-0.2177,-0.2188,-0.2249,-0.224,-0.2263,-0.228,-0.2298,-0.2407,-0.2435,-0.2499,-0.2483,-0.2444,-0.2319,-0.2153,-0.2125,-0.1986,-0.2042,-0.1851,-0.1878,-0.1893,-0.1904,-0.1959,-0.193,-0.1688,-0.1683,-0.168,-0.1677,0,-0.201,-0.2038,-0.2038,-0.2034,-0.2048,-0.2066,-0.212,-0.2133,-0.2279,-0.2239,-0.216,-0.2037,-0.1965,-0.1778,-0.1732,-0.1679,-0.1816,-0.1775,-0.1794,-0.166,-0.1708,-0.1639,-0.1812,-0.1645,-0.1649,-0.1651,-0.1653,-0.1654,-0.1834,-0.1787,-0.1799,-0.1776,-0.1804,-0.1828,-0.1779,-0.186,-0.1817,-0.1743,-0.1771,-0.1467,-0.1474,-0.135,-0.136,-0.1448,-0.1536,-0.1428,-0.1481,-0.1537,-0.1502,-0.1626,-0.141,-0.1411,-0.1413,-0.1414,-0.1415,0,-0.1594,-0.1573,-0.1544,-0.1518,-0.1474,-0.1574,-0.1628,-0.1557,-0.1428,-0.1339,-0.1124,-0.0819,-0.0801,-0.0935,-0.1161,-0.1161,-0.1173,-0.1196,-0.1238,-0.1222,-0.1297,-0.1296,-0.104,-0.104,-0.104,-0.104,-0.104,-0.104,-0.1454,-0.1342,-0.1343,-0.1185,-0.1179,-0.1072,-0.1061,-0.0972,-0.0873,-0.0532,-0.0261,-0.0081,-0.0344,-0.0854,-0.1099,-0.1091,-0.1111,-0.1075,-0.1154,-0.1216,-0.1242,-0.1268,-0.1275,-0.1019,-0.1019,-0.1002,-0.1002,-0.1002]},{"header":{"parameterUnit":"m.s-1","parameterCategory":2,"la1":30.2991,"la2":30.254,"lo1":-89.0895,"lo2":-89.0444,"dy":0.0017,"dx":0.0017,"nx":28,"ny":28,"refTime":"2025-06-11T03:00:00:Z","depth":"0","parameterNumber":3,"parameterNumberName":"V-component_of_CURRENTS"},"data":[0,0,0,0,0,0,0,0,0,0,0,0,0,0,0,0,0,0,0,0,0,0,0,0,0,0,0,0,0,0,0,0,0,0,0,0,0,0,0,0,0,0,0,0,0,0,0,0,0,0,0,0,0,0,0,0,0,0,0.0393,0.0393,0,0.0435,0.0436,0.0437,0.0513,0.0515,0.0516,0.0518,0.0616,0.0618,0.0619,0,0,0,0,0,0,0,0,0,0,0,0,0,0.0168,0.0173,0.0393,0.0393,0.0393,0.0435,0.0436,0.0437,0.0513,0.0515,0.0517,0.0518,0.0616,0.0617,0.0619,0,0,0,0,0,0,0,0,0,0,0,0,0,0.0245,0.0175,0.0392,0.0436,0.044,0.0435,0.0436,0.0437,0.0513,0.0515,0.0517,0.0519,0.0615,0.0617,0.0619,0.059,0,0,0.0625,0.0626,0,0,0,0,0,0,0,0,0.0241,0.0253,0.0429,0.0433,0.0438,0.0471,0.0393,0.049,0.0512,0.0486,0.0518,0.052,0.0571,0.0576,0.058,0.0594,0.0599,0.0625,0.0627,0.0628,0.0628,0,0,0,0,0,0,0,0.0236,0.0251,0.041,0.043,0.0435,0.0382,0.0397,0.0411,0.0518,0.0489,0.0494,0.0497,0.0574,0.0578,0.0583,0.06,0.0625,0.0627,0.0628,0.0629,0.0623,0.0621,0,0,0,0,0,0,0.0238,0.0247,0.0409,0.0412,0.0341,0.0385,0.0402,0.0459,0.0517,0.0527,0.0495,0.05,0.0574,0.0581,0.0587,0.0559,0.0628,0.0629,0.0631,0.0624,0.0622,0.0621,0,0,0,0,0,0,0.0234,0.0255,0.0407,0.0325,0.0341,0.0388,0.045,0.0458,0.0463,0.0521,0.0533,0.0491,0.0575,0.0584,0.0595,0.0563,0.063,0.0632,0.0625,0.0623,0.0621,0.05,0,0,0,0,0,0,0.0229,0.0254,0.0287,0.0328,0.0346,0.0385,0.0448,0.0458,0.0461,0.0468,0.0521,0.0533,0.0578,0.0592,0.0597,0.0567,0.0634,0.0627,0.0625,0.0622,0.0506,0.0494,0.0484,0,0,0,0,0,0.0221,0.0237,0.029,0.0307,0.0396,0.0383,0.0386,0.0424,0.0459,0.044,0.0488,0.0531,0.058,0.0591,0.0598,0.0568,0.0628,0.0625,0.0622,0.0511,0.0496,0.0484,0,0,0,0,0,0,0.0165,0.0248,0.0306,0.0355,0.0367,0.0395,0.0375,0.0409,0.043,0.0443,0.0509,0.0522,0.0521,0.0557,0.0569,0.056,0.0612,0.061,0.0525,0.0512,0.0501,0.0508,0.0635,0,0,0,0,0,0.017,0.0204,0.0266,0.0299,0.0301,0.0339,0.0339,0.0367,0.0392,0.0404,0.0446,0.0488,0.051,0.0522,0.0548,0.0534,0.0578,0.0521,0.051,0.0501,0.0511,0.053,0.0522,0.0611,0.0611,0.0611,0,0,0.0164,0.0205,0.0233,0.0286,0.0299,0.0275,0.0343,0.0328,0.0321,0.0409,0.0406,0.0449,0.0498,0.0492,0.0494,0.0519,0.0496,0.0497,0.0488,0.0505,0.0526,0.0518,0.051,0.0608,0.0609,0.0609,0,0,0.0097,0.0195,0.0172,0.0176,0.0186,0.0213,0.0205,0.0234,0.0259,0.0259,0.0325,0.0354,0.0379,0.0416,0.0437,0.0379,0.0438,0.0379,0.0327,0.0344,0.0337,0.0331,0.0365,0.0364,0.0372,0.0372,0.0372,0,0.0082,0.0086,0.0153,0.0108,0.0101,0.0179,0.0128,0.0157,0.0191,0.0208,0.0243,0.0303,0.0346,0.0353,0.0342,0.0354,0.0379,0.0369,0.0329,0.0325,0.0321,0.0358,0.0357,0.0366,0.0367,0.0367,0.0368,0,-0.0024,-0.0016,-0.0047,-0.0047,-0.005,-0.0084,-0.0032,-0.0018,0.0032,0.0077,0.0104,0.0172,0.0214,0.0224,0.0268,0.026,0.029,0.0311,0.036,0.0305,0.0347,0.0349,0.0357,0.0359,0.0361,0.0363,0,0,-0.0063,-0.0107,-0.0116,-0.015,-0.0131,-0.0154,-0.0153,-0.0132,-0.0138,-0.0063,-0.0065,0.0005,0.0072,0.0101,0.016,0.0187,0.0183,0.0233,0.0237,0.0264,0.0227,0.0322,0.0334,0.0188,0.0188,0.0188,0.0262,0,-0.0168,-0.0285,-0.0266,-0.036,-0.0411,-0.0337,-0.0354,-0.0312,-0.0253,-0.0232,-0.0114,-0.0098,0.0015,0.002,0.0073,0.0161,0.0185,0.0162,0.0281,0.0286,0.0373,0.0338,0.0421,0.0501,0.0265,0.0266,0.0266,0,-0.0282,-0.0347,-0.046,-0.0517,-0.0533,-0.0563,-0.0558,-0.0561,-0.0478,-0.0434,-0.0347,-0.0258,-0.0166,-0.0095,0.0064,0.0042,0.0124,0.0196,0.02,0.034,0.0385,0.0522,0.0515,0.0651,0.027,0.027,0.0269,0,-0.0372,-0.0476,-0.0571,-0.059,-0.0639,-0.0663,-0.0669,-0.0617,-0.0627,-0.0552,-0.0551,-0.0404,-0.0343,-0.0206,0.0016,0.0011,0.0185,0.0188,0.0351,0.0359,0.0484,0.0504,0.0627,0.0258,0.0258,0.0258,0.0257,0,-0.048,-0.0557,-0.0623,-0.0678,-0.0785,-0.0772,-0.0847,-0.0817,-0.0796,-0.0785,-0.0659,-0.058,-0.0372,-0.0215,-0.0038,0.0206,0.0153,0.035,0.0384,0.0444,0.0459,0.0629,0.0667,0.026,0.026,0.0259,0.0259,0,-0.0545,-0.0595,-0.0712,-0.0797,-0.083,-0.0894,-0.0961,-0.1007,-0.0973,-0.0955,-0.0939,-0.0733,-0.0476,-0.0261,-0.0014,0.0138,0.0448,0.0424,0.0502,0.0544,0.0809,0.0837,0.1003,0.1098,0.059,0.0593,0.0595,0,-0.058,-0.0651,-0.0789,-0.0865,-0.0904,-0.1,-0.1065,-0.1078,-0.1108,-0.098,-0.0968,-0.074,-0.0429,-0.0029,0.0219,0.0511,0.06,0.0698,0.0704,0.0849,0.0903,0.0912,0.0979,0.0815,0.0819,0.0822,0.0824,0,-0.0629,-0.0675,-0.0765,-0.0927,-0.1025,-0.1139,-0.1216,-0.1263,-0.1223,-0.1142,-0.0869,-0.0589,-0.0179,0.0271,0.0566,0.0734,0.0819,0.0773,0.0896,0.1076,0.1121,0.122,0.0745,0.0853,0.085,0.0848,0.0847,0.0845,-0.0627,-0.07,-0.0814,-0.0957,-0.109,-0.1195,-0.1224,-0.1236,-0.1179,-0.0944,-0.0723,-0.0215,0.0316,0.0818,0.0929,0.1157,0.1085,0.1254,0.1271,0.1264,0.1377,0.098,0.1143,0.1142,0.114,0.114,0.1139,0,-0.0587,-0.0684,-0.0834,-0.0984,-0.1099,-0.1175,-0.1261,-0.1195,-0.1011,-0.0744,-0.0372,0.0397,0.0896,0.1231,0.1541,0.1652,0.1648,0.1711,0.1736,0.1777,0.1417,0.1451,0.172,0.172,0.172,0.172,0.172,0.172,-0.0566,-0.067,-0.0759,-0.0918,-0.1025,-0.1075,-0.108,-0.0917,-0.0724,-0.0166,0.0303,0.0688,0.1253,0.1751,0.2032,0.2053,0.2172,0.2156,0.22,0.1945,0.1902,0.1862,0.1905,0.2265,0.2266,0.258,0.2583,0.2585]}],[{"header":{"parameterUnit":"m.s-1","parameterCategory":2,"la1":30.2991,"la2":30.254,"lo1":-89.0895,"lo2":-89.0444,"dy":0.0017,"dx":0.0017,"nx":28,"ny":28,"refTime":"2025-06-11T03:00:00:Z","depth":"2","parameterNumber":2,"parameterNumberName":"U-component_of_CURRENTS"},"data":[0,0,0,0,0,0,0,0,0,0,0,0,0,0,0,0,0,0,0,0,0,0,0,0,0,0,0,0,0,0,0,0,0,0,0,0,0,0,0,0,0,0,0,0,0,0,0,0,0,0,0,0,0,0,0,0,0,0,-0.1978,-0.1979,0,-0.2142,-0.2144,-0.2147,-0.2159,-0.2156,-0.2154,-0.2151,-0.2539,-0.2552,-0.2565,0,0,0,0,0,0,0,0,0,0,0,0,0,-0.1894,-0.1895,-0.1978,-0.1979,-0.198,-0.2141,-0.2145,-0.2148,-0.216,-0.2156,-0.2153,-0.215,-0.2535,-0.255,-0.2566,0,0,0,0,0,0,0,0,0,0,0,0,0,-0.1991,-0.1895,-0.1977,-0.1997,-0.2,-0.2141,-0.2145,-0.2149,-0.216,-0.2156,-0.2152,-0.2148,-0.253,-0.2549,-0.2568,-0.2771,0,0,-0.2627,-0.2636,0,0,0,0,0,0,0,0,-0.1985,-0.1995,-0.1993,-0.1996,-0.1999,-0.2116,-0.2257,-0.2364,-0.2161,-0.2111,-0.2151,-0.2146,-0.2415,-0.2443,-0.2496,-0.2789,-0.2806,-0.2629,-0.2641,-0.2649,-0.2654,0,0,0,0,0,0,0,-0.1978,-0.1989,-0.2053,-0.1995,-0.1998,-0.2072,-0.2081,-0.2278,-0.2297,-0.2115,-0.2113,-0.2116,-0.2419,-0.2477,-0.2505,-0.2812,-0.2628,-0.2646,-0.2658,-0.2665,-0.3151,-0.3152,0,0,0,0,0,0,-0.193,-0.1982,-0.2048,-0.2057,-0.197,-0.2075,-0.2086,-0.2092,-0.229,-0.2311,-0.212,-0.2116,-0.2446,-0.2482,-0.2519,-0.2679,-0.2649,-0.2667,-0.2678,-0.315,-0.3151,-0.3153,0,0,0,0,0,0,-0.1928,-0.1935,-0.2041,-0.2015,-0.2032,-0.2078,-0.2088,-0.2097,-0.2145,-0.2289,-0.2315,-0.2153,-0.2444,-0.2492,-0.2696,-0.2697,-0.2676,-0.2693,-0.3148,-0.315,-0.3152,-0.3061,0,0,0,0,0,0,-0.1925,-0.1933,-0.1936,-0.2011,-0.2031,-0.2134,-0.2091,-0.2103,-0.2148,-0.2145,-0.233,-0.236,-0.2444,-0.2666,-0.2715,-0.2724,-0.2709,-0.3147,-0.3149,-0.3152,-0.3062,-0.3059,-0.3057,0,0,0,0,0,-0.1922,-0.1941,-0.1935,-0.1943,-0.2028,-0.2136,-0.2157,-0.2183,-0.2153,-0.2206,-0.2314,-0.2354,-0.2711,-0.2687,-0.2743,-0.2756,-0.3146,-0.3149,-0.3151,-0.3063,-0.306,-0.3057,0,0,0,0,0,0,-0.1902,-0.1945,-0.194,-0.1968,-0.2045,-0.2134,-0.2173,-0.2195,-0.2323,-0.2321,-0.2435,-0.2479,-0.265,-0.2734,-0.2701,-0.2896,-0.2913,-0.2927,-0.2826,-0.2825,-0.2822,-0.2712,-0.2725,0,0,0,0,0,-0.1898,-0.1921,-0.1986,-0.2011,-0.2044,-0.2113,-0.2158,-0.219,-0.2296,-0.2343,-0.2464,-0.2584,-0.2714,-0.2789,-0.2943,-0.3097,-0.3067,-0.3121,-0.3118,-0.3115,-0.3062,-0.3002,-0.2986,-0.3162,-0.3162,-0.3162,0,0,-0.1893,-0.1919,-0.1931,-0.2009,-0.2063,-0.2115,-0.2134,-0.2216,-0.2252,-0.2381,-0.2496,-0.2627,-0.2764,-0.2906,-0.2982,-0.2969,-0.3061,-0.3118,-0.3115,-0.3062,-0.3002,-0.2984,-0.2968,-0.3164,-0.3164,-0.3164,0,0,-0.1903,-0.1925,-0.195,-0.2009,-0.2089,-0.214,-0.2159,-0.2272,-0.2313,-0.2484,-0.2529,-0.2636,-0.2901,-0.2926,-0.2985,-0.307,-0.3071,-0.3131,-0.3016,-0.296,-0.2942,-0.2926,-0.2894,-0.2876,-0.31,-0.31,-0.31,0,-0.189,-0.1923,-0.1984,-0.2022,-0.2056,-0.2136,-0.2179,-0.2249,-0.2412,-0.2443,-0.2514,-0.2746,-0.2882,-0.2926,-0.2941,-0.3055,-0.3032,-0.3015,-0.2946,-0.293,-0.2915,-0.2886,-0.2866,-0.3096,-0.3096,-0.3097,-0.3097,0,-0.192,-0.1944,-0.1972,-0.2022,-0.2082,-0.215,-0.2225,-0.2301,-0.2378,-0.2429,-0.255,-0.2713,-0.2812,-0.2871,-0.2955,-0.2904,-0.2929,-0.2966,-0.2931,-0.2889,-0.2865,-0.2846,-0.309,-0.3091,-0.3093,-0.3094,0,0,-0.1893,-0.1973,-0.1979,-0.1999,-0.209,-0.2148,-0.2199,-0.227,-0.2284,-0.2423,-0.244,-0.2613,-0.2651,-0.2713,-0.2792,-0.2735,-0.2653,-0.2793,-0.2793,-0.2719,-0.2531,-0.2496,-0.2473,-0.2669,-0.2665,-0.2662,-0.2565,0,-0.1898,-0.1951,-0.1995,-0.2044,-0.2081,-0.2147,-0.2191,-0.2253,-0.2341,-0.2394,-0.2445,-0.2544,-0.2598,-0.2667,-0.2603,-0.2689,-0.2595,-0.2675,-0.2618,-0.2615,-0.2552,-0.2446,-0.2285,-0.2178,-0.2546,-0.2543,-0.2541,0,-0.1904,-0.1944,-0.1988,-0.2052,-0.2074,-0.2106,-0.217,-0.2227,-0.2271,-0.2345,-0.2353,-0.2432,-0.2407,-0.2473,-0.2413,-0.2466,-0.2459,-0.2475,-0.2473,-0.2438,-0.2541,-0.228,-0.2131,-0.251,-0.2512,-0.2515,-0.2517,0,-0.186,-0.1933,-0.1964,-0.1988,-0.2074,-0.2094,-0.2138,-0.2195,-0.2244,-0.228,-0.2332,-0.2302,-0.2352,-0.2287,-0.2347,-0.2377,-0.2271,-0.2331,-0.2251,-0.2252,-0.2096,-0.2089,-0.2188,-0.2189,-0.2189,-0.2189,-0.2189,0,-0.1842,-0.1865,-0.1944,-0.1962,-0.1997,-0.2065,-0.2103,-0.2147,-0.2207,-0.2234,-0.2281,-0.2305,-0.2305,-0.2284,-0.2279,-0.2206,-0.2205,-0.2171,-0.219,-0.2071,-0.2063,-0.2344,-0.2363,-0.2186,-0.2186,-0.2187,-0.2188,0,-0.1777,-0.1832,-0.1868,-0.1951,-0.1972,-0.1992,-0.2076,-0.2102,-0.2178,-0.2212,-0.2226,-0.229,-0.2255,-0.2232,-0.2178,-0.2148,-0.2083,-0.2044,-0.1919,-0.1922,-0.2115,-0.2132,-0.1916,-0.1913,-0.1911,-0.1909,-0.1907,0,-0.1745,-0.176,-0.1836,-0.1847,-0.1878,-0.1926,-0.1955,-0.2057,-0.2091,-0.2202,-0.2205,-0.2213,-0.2196,-0.2103,-0.2004,-0.1894,-0.1987,-0.1719,-0.1721,-0.2028,-0.207,-0.2091,-0.2111,-0.1502,-0.1497,-0.1493,-0.149,0,-0.168,-0.1707,-0.1734,-0.176,-0.1786,-0.1822,-0.1874,-0.1901,-0.2018,-0.2065,-0.2135,-0.2141,-0.2062,-0.1884,-0.1743,-0.1672,-0.1727,-0.1636,-0.1932,-0.1615,-0.1634,-0.1679,-0.1711,-0.1455,-0.1458,-0.1461,-0.1463,-0.1464,-0.1612,-0.1609,-0.1641,-0.1652,-0.1681,-0.1686,-0.1689,-0.1737,-0.1773,-0.1796,-0.1964,-0.1907,-0.1891,-0.1571,-0.1467,-0.1351,-0.1471,-0.1419,-0.1431,-0.1448,-0.1436,-0.1451,-0.1236,-0.1238,-0.124,-0.1242,-0.1243,0,-0.1523,-0.1525,-0.153,-0.1529,-0.1503,-0.1574,-0.1612,-0.1577,-0.1555,-0.1581,-0.1636,-0.149,-0.1353,-0.13,-0.1054,-0.1027,-0.1019,-0.0996,-0.0989,-0.1023,-0.1054,-0.1024,-0.0713,-0.0712,-0.0711,-0.071,0,0,-0.1473,-0.144,-0.1442,-0.1352,-0.1353,-0.1317,-0.1325,-0.1281,-0.1276,-0.1151,-0.1114,-0.1277,-0.1287,-0.1023,-0.0953,-0.079,-0.0906,-0.0745,-0.1167,-0.1194,-0.1224,-0.1288,-0.1278,0,0,0,0,0]},{"header":{"parameterUnit":"m.s-1","parameterCategory":2,"la1":30.2991,"la2":30.254,"lo1":-89.0895,"lo2":-89.0444,"dy":0.0017,"dx":0.0017,"nx":28,"ny":28,"refTime":"2025-06-11T03:00:00:Z","depth":"2","parameterNumber":3,"parameterNumberName":"V-component_of_CURRENTS"},"data":[0,0,0,0,0,0,0,0,0,0,0,0,0,0,0,0,0,0,0,0,0,0,0,0,0,0,0,0,0,0,0,0,0,0,0,0,0,0,0,0,0,0,0,0,0,0,0,0,0,0,0,0,0,0,0,0,0,0,-0.0338,-0.0337,0,-0.0265,-0.0264,-0.0263,-0.021,-0.021,-0.021,-0.0209,0.0128,0.0136,0.0145,0,0,0,0,0,0,0,0,0,0,0,0,0,-0.0327,-0.0328,-0.0338,-0.0337,-0.0337,-0.0265,-0.0264,-0.0262,-0.021,-0.021,-0.0209,-0.0209,0.0125,0.0135,0.0146,0,0,0,0,0,0,0,0,0,0,0,0,0,-0.0299,-0.0328,-0.0338,-0.0304,-0.03,-0.0265,-0.0264,-0.0262,-0.021,-0.021,-0.0209,-0.0209,0.0121,0.0134,0.0147,0.0223,0,0,0.0188,0.0193,0,0,0,0,0,0,0,0,-0.03,-0.0299,-0.0309,-0.0306,-0.0302,-0.0249,-0.0137,-0.0088,-0.021,-0.0241,-0.0209,-0.0209,0.0025,0.0046,0.0059,0.0239,0.0253,0.0189,0.0197,0.0202,0.0206,0,0,0,0,0,0,0,-0.0303,-0.0301,-0.0306,-0.0309,-0.0304,-0.0256,-0.0253,-0.0127,-0.0104,-0.0239,-0.0235,-0.0232,0.0029,0.0046,0.0068,0.0258,0.0188,0.02,0.0208,0.0213,0.0595,0.0597,0,0,0,0,0,0,-0.0323,-0.0304,-0.0309,-0.0304,-0.0303,-0.0257,-0.0253,-0.0264,-0.0111,-0.009,-0.0232,-0.0229,0.0023,0.0052,0.008,0.0223,0.0202,0.0215,0.0222,0.0593,0.0596,0.0598,0,0,0,0,0,0,-0.0323,-0.0325,-0.0312,-0.0303,-0.0298,-0.0259,-0.0271,-0.0263,-0.0245,-0.0109,-0.0083,-0.0223,0.0024,0.0062,0.02,0.0236,0.0221,0.0233,0.059,0.0594,0.0597,0.0483,0,0,0,0,0,0,-0.0324,-0.0326,-0.0341,-0.0305,-0.03,-0.0301,-0.0271,-0.0261,-0.0245,-0.0241,-0.0092,-0.0062,0.0027,0.0179,0.0212,0.0254,0.0243,0.0588,0.0592,0.0596,0.0484,0.0482,0.0481,0,0,0,0,0,-0.0324,-0.0352,-0.0343,-0.0343,-0.0323,-0.0302,-0.0295,-0.0262,-0.0245,-0.0244,-0.0131,-0.0066,0.023,0.0191,0.023,0.0276,0.0586,0.0591,0.0596,0.0485,0.0483,0.0481,0,0,0,0,0,0,-0.0356,-0.0349,-0.0338,-0.0363,-0.0338,-0.0295,-0.0295,-0.0267,-0.0185,-0.0169,-0.0039,0.0,0.0148,0.0227,0.018,0.0402,0.0421,0.0433,0.0323,0.0323,0.0321,0.0259,0.0254,0,0,0,0,0,-0.0372,-0.0392,-0.0365,-0.0385,-0.0377,-0.0334,-0.0322,-0.0299,-0.0225,-0.0193,-0.0086,0.0049,0.0199,0.0265,0.0404,0.0511,0.0528,0.057,0.0568,0.0565,0.0545,0.0565,0.056,0.0615,0.0615,0.0615,0,0,-0.0394,-0.0389,-0.0402,-0.0393,-0.0371,-0.0361,-0.0326,-0.0315,-0.0291,-0.0159,-0.0079,0.006,0.0233,0.0363,0.0434,0.0428,0.0565,0.0572,0.0568,0.0548,0.0569,0.0562,0.0557,0.0618,0.0617,0.0617,0,0,-0.0434,-0.0438,-0.0461,-0.0442,-0.0418,-0.039,-0.039,-0.0341,-0.0305,-0.0208,-0.0089,0.0048,0.0249,0.0365,0.0459,0.0531,0.057,0.0592,0.0515,0.0535,0.0528,0.0522,0.0539,0.0535,0.057,0.0569,0.0569,0,-0.0458,-0.0477,-0.0461,-0.0463,-0.045,-0.0406,-0.0407,-0.0366,-0.0274,-0.0232,-0.0191,0.0095,0.0251,0.0403,0.0443,0.0525,0.0527,0.05,0.0523,0.0518,0.0514,0.0532,0.053,0.0565,0.0565,0.0566,0.0566,0,-0.0501,-0.051,-0.0519,-0.0509,-0.0493,-0.049,-0.0435,-0.0403,-0.0341,-0.0284,-0.0134,0.0048,0.0207,0.0296,0.0407,0.048,0.0489,0.0524,0.0502,0.05,0.0522,0.0521,0.0558,0.0559,0.0561,0.0562,0,0,-0.0565,-0.0555,-0.0555,-0.0551,-0.0515,-0.0506,-0.0469,-0.0417,-0.0382,-0.0286,-0.0221,0.0025,0.0091,0.0202,0.0339,0.0368,0.0383,0.0421,0.0424,0.0391,0.0401,0.0462,0.0467,0.0393,0.0393,0.0392,0.0425,0,-0.0597,-0.0616,-0.0595,-0.0598,-0.06,-0.0547,-0.0513,-0.0458,-0.0378,-0.0304,-0.0162,-0.0024,0.0061,0.0158,0.0191,0.0371,0.0375,0.037,0.045,0.0452,0.0468,0.0467,0.0455,0.0488,0.0425,0.0425,0.0425,0,-0.0636,-0.0642,-0.0657,-0.0633,-0.0628,-0.0621,-0.0562,-0.0524,-0.0419,-0.035,-0.0259,-0.0137,-0.0015,0.0048,0.0192,0.0173,0.0266,0.0357,0.036,0.0449,0.0512,0.0488,0.0489,0.0424,0.0424,0.0424,0.0424,0,-0.0679,-0.0679,-0.0693,-0.0686,-0.0655,-0.0646,-0.0625,-0.0541,-0.0501,-0.0387,-0.0329,-0.0215,-0.0101,-0.003,0.0179,0.0174,0.0315,0.0337,0.0451,0.0456,0.0482,0.0491,0.0382,0.0382,0.0382,0.0382,0.0381,0,-0.0714,-0.0723,-0.0719,-0.0725,-0.0737,-0.0694,-0.0679,-0.0629,-0.0548,-0.0499,-0.0369,-0.0286,-0.0118,0.0005,0.0127,0.0293,0.0259,0.0429,0.0466,0.0449,0.0455,0.0434,0.044,0.0383,0.0383,0.0382,0.0382,0,-0.0752,-0.0749,-0.0767,-0.0757,-0.0759,-0.0767,-0.0743,-0.0724,-0.0635,-0.0565,-0.053,-0.0337,-0.0168,-0.0009,0.0182,0.027,0.0408,0.047,0.0447,0.048,0.0536,0.0536,0.0564,0.0567,0.0569,0.057,0.0572,0,-0.0774,-0.0788,-0.0806,-0.0828,-0.083,-0.0838,-0.0843,-0.078,-0.0752,-0.0589,-0.0554,-0.0352,-0.0176,0.0113,0.0296,0.0475,0.0477,0.0564,0.0567,0.052,0.0553,0.055,0.0548,0.0556,0.0557,0.0558,0.0559,0,-0.081,-0.0816,-0.0832,-0.0886,-0.0911,-0.0932,-0.0929,-0.092,-0.0825,-0.0734,-0.0554,-0.039,-0.0068,0.0186,0.0434,0.0527,0.053,0.0591,0.0542,0.0524,0.0519,0.0549,0.0546,0.0567,0.0567,0.0566,0.0565,0.0565,-0.0836,-0.0862,-0.0892,-0.0938,-0.0977,-0.1009,-0.1036,-0.0985,-0.0925,-0.075,-0.0582,-0.0295,-0.0063,0.0332,0.0489,0.0638,0.0637,0.0666,0.0659,0.0653,0.0658,0.0658,0.0733,0.0733,0.0733,0.0733,0.0734,0,-0.087,-0.0895,-0.0943,-0.0998,-0.1053,-0.1066,-0.1083,-0.1062,-0.0988,-0.0722,-0.0514,-0.023,0.008,0.0323,0.0587,0.0727,0.069,0.073,0.066,0.0652,0.0645,0.0647,0.072,0.072,0.072,0.0721,0,0,-0.0891,-0.0936,-0.0959,-0.1051,-0.1102,-0.1181,-0.1205,-0.1129,-0.0953,-0.0672,-0.0425,-0.0152,0.0154,0.0301,0.0477,0.0634,0.06,0.0632,0.0634,0.0526,0.0517,0.0607,0.0602,0,0,0,0,0]}],[{"header":{"parameterUnit":"m.s-1","parameterCategory":2,"la1":30.2991,"la2":30.254,"lo1":-89.0895,"lo2":-89.0444,"dy":0.0017,"dx":0.0017,"nx":28,"ny":28,"refTime":"2025-06-11T03:00:00:Z","depth":"4","parameterNumber":2,"parameterNumberName":"U-component_of_CURRENTS"},"data":[0,0,0,0,0,0,0,0,0,0,0,0,0,0,0,0,0,0,0,0,0,0,0,0,0,0,0,0,0,0,0,0,0,0,0,0,0,0,0,0,0,0,0,0,0,0,0,0,0,0,0,0,0,0,0,0,0,0,-0.1462,-0.1463,0,-0.1507,-0.1507,-0.1508,-0.1509,-0.1509,-0.1509,-0.1508,-0.1497,-0.1497,-0.1497,0,0,0,0,0,0,0,0,0,0,0,0,0,-0.1358,-0.136,-0.1462,-0.1463,-0.1463,-0.1507,-0.1507,-0.1508,-0.1509,-0.1509,-0.1509,-0.1508,-0.1497,-0.1497,-0.1497,0,0,0,0,0,0,0,0,0,0,0,0,0,-0.1401,-0.1361,-0.1462,-0.1471,-0.1473,-0.1507,-0.1507,-0.1508,-0.151,-0.1509,-0.1509,-0.1508,-0.1497,-0.1497,-0.1497,-0.1506,0,0,-0.1497,-0.1497,0,0,0,0,0,0,0,0,-0.1399,-0.1404,-0.1469,-0.1471,-0.1473,-0.1504,-0.1467,-0.1506,-0.151,-0.1493,-0.1508,-0.1508,-0.1497,-0.1497,-0.1503,-0.1506,-0.1505,-0.1497,-0.1497,-0.1497,-0.1497,0,0,0,0,0,0,0,-0.1396,-0.1402,-0.1477,-0.147,-0.1472,-0.1467,-0.1473,-0.1474,-0.1494,-0.1494,-0.1495,-0.1505,-0.1497,-0.1503,-0.1503,-0.1505,-0.1497,-0.1497,-0.1497,-0.1497,-0.1559,-0.1561,0,0,0,0,0,0,-0.1397,-0.14,-0.1476,-0.1479,-0.1437,-0.147,-0.1476,-0.1493,-0.1495,-0.1496,-0.1505,-0.1505,-0.1504,-0.1503,-0.1502,-0.1535,-0.1497,-0.1497,-0.1497,-0.1558,-0.156,-0.1561,0,0,0,0,0,0,-0.1395,-0.1404,-0.1474,-0.1442,-0.1451,-0.1473,-0.1491,-0.1494,-0.1516,-0.1504,-0.1503,-0.1526,-0.1503,-0.1502,-0.1524,-0.1534,-0.1497,-0.1497,-0.1556,-0.1558,-0.156,-0.1586,0,0,0,0,0,0,-0.1392,-0.1403,-0.1426,-0.1442,-0.1453,-0.1503,-0.1492,-0.1495,-0.1523,-0.1523,-0.1522,-0.152,-0.1503,-0.1524,-0.1524,-0.1533,-0.1497,-0.1554,-0.1557,-0.156,-0.1583,-0.1589,-0.1595,0,0,0,0,0,-0.1388,-0.1417,-0.1427,-0.1436,-0.148,-0.1504,-0.1509,-0.152,-0.1524,-0.1538,-0.1544,-0.152,-0.1544,-0.1526,-0.1525,-0.1534,-0.1552,-0.1556,-0.1559,-0.1581,-0.1588,-0.1594,0,0,0,0,0,0,-0.1377,-0.142,-0.1431,-0.1471,-0.1491,-0.1505,-0.1528,-0.1534,-0.1552,-0.1558,-0.1541,-0.154,-0.1563,-0.1555,-0.1536,-0.1565,-0.1544,-0.1548,-0.1561,-0.1568,-0.1573,-0.1561,-0.1497,0,0,0,0,0,-0.1389,-0.1426,-0.1453,-0.1485,-0.1502,-0.152,-0.1536,-0.1544,-0.1558,-0.1566,-0.1569,-0.1574,-0.1577,-0.1578,-0.1584,-0.1599,-0.1592,-0.1607,-0.1613,-0.1618,-0.161,-0.1625,-0.1631,-0.1574,-0.1574,-0.1574,0,0,-0.1394,-0.1422,-0.1444,-0.1486,-0.1507,-0.1529,-0.1528,-0.156,-0.1573,-0.1562,-0.1591,-0.1597,-0.1589,-0.1606,-0.1615,-0.1599,-0.1633,-0.1622,-0.1626,-0.1616,-0.163,-0.1635,-0.1639,-0.1576,-0.1576,-0.1575,0,0,-0.1407,-0.145,-0.1479,-0.1503,-0.1542,-0.1553,-0.1567,-0.1596,-0.1607,-0.1637,-0.163,-0.164,-0.1661,-0.1644,-0.1639,-0.1681,-0.1667,-0.1697,-0.1705,-0.172,-0.1724,-0.1728,-0.1731,-0.1734,-0.1693,-0.1693,-0.1693,0,-0.141,-0.1453,-0.1488,-0.1516,-0.1544,-0.1565,-0.1592,-0.1604,-0.1634,-0.1653,-0.1653,-0.1688,-0.1669,-0.1676,-0.1682,-0.1687,-0.1702,-0.1674,-0.1725,-0.1728,-0.1731,-0.1733,-0.1737,-0.1695,-0.1695,-0.1695,-0.1695,0,-0.1432,-0.1476,-0.1498,-0.1543,-0.1573,-0.1605,-0.1628,-0.1659,-0.1683,-0.1694,-0.1731,-0.1719,-0.1737,-0.1732,-0.1711,-0.1728,-0.1735,-0.1733,-0.17,-0.1738,-0.1739,-0.1742,-0.1698,-0.1697,-0.1696,-0.1696,0,0,-0.141,-0.1498,-0.1506,-0.1541,-0.1596,-0.1621,-0.1656,-0.1695,-0.1728,-0.1749,-0.1788,-0.1773,-0.1783,-0.1778,-0.1763,-0.1755,-0.1771,-0.1754,-0.1754,-0.1743,-0.1813,-0.1681,-0.1671,-0.1793,-0.1793,-0.1794,-0.1805,0,-0.1416,-0.1478,-0.1521,-0.158,-0.1616,-0.1663,-0.1696,-0.1734,-0.1768,-0.181,-0.1802,-0.183,-0.1796,-0.1812,-0.1802,-0.1785,-0.1781,-0.1768,-0.1789,-0.1789,-0.1656,-0.167,-0.1796,-0.1807,-0.1808,-0.1808,-0.1809,0,-0.1411,-0.1464,-0.1527,-0.1618,-0.1641,-0.1676,-0.1756,-0.1788,-0.184,-0.1871,-0.19,-0.1908,-0.1898,-0.187,-0.1854,-0.186,-0.1837,-0.1815,-0.1815,-0.168,-0.1662,-0.1763,-0.1814,-0.1814,-0.1813,-0.1813,-0.1813,0,-0.1371,-0.1464,-0.1523,-0.1553,-0.1651,-0.1695,-0.1744,-0.181,-0.1844,-0.1911,-0.1945,-0.1962,-0.1965,-0.1952,-0.1891,-0.1895,-0.187,-0.1874,-0.1735,-0.1726,-0.183,-0.1827,-0.1866,-0.1866,-0.1866,-0.1866,-0.1866,0,-0.1348,-0.1397,-0.1516,-0.1547,-0.1618,-0.1693,-0.1763,-0.1816,-0.1888,-0.1915,-0.1972,-0.1979,-0.1988,-0.197,-0.1926,-0.1822,-0.1903,-0.1726,-0.1715,-0.1843,-0.1841,-0.1832,-0.1828,-0.1867,-0.1867,-0.1867,-0.1866,0,-0.1283,-0.1363,-0.1438,-0.1561,-0.16,-0.1649,-0.176,-0.1795,-0.1885,-0.1922,-0.1943,-0.1999,-0.1965,-0.1948,-0.1914,-0.1841,-0.1773,-0.172,-0.185,-0.1848,-0.1618,-0.1616,-0.158,-0.1575,-0.1571,-0.1568,-0.1565,0,-0.1252,-0.1288,-0.143,-0.1467,-0.1525,-0.1612,-0.1655,-0.1769,-0.1795,-0.19,-0.189,-0.1916,-0.1921,-0.1773,-0.1778,-0.1697,-0.1664,-0.1643,-0.1624,-0.1593,-0.1587,-0.1591,-0.1594,-0.1558,-0.1557,-0.1556,-0.1555,0,-0.1191,-0.1255,-0.1315,-0.1394,-0.1455,-0.1512,-0.1581,-0.1591,-0.1698,-0.1808,-0.1784,-0.1762,-0.1721,-0.1676,-0.1618,-0.1561,-0.1667,-0.1602,-0.161,-0.1591,-0.1567,-0.1566,-0.1574,-0.1542,-0.1544,-0.1545,-0.1546,0,-0.1139,-0.1165,-0.1247,-0.1299,-0.1366,-0.137,-0.1431,-0.1454,-0.1502,-0.1621,-0.1607,-0.1635,-0.1699,-0.1604,-0.1551,-0.148,-0.1455,-0.1417,-0.1435,-0.145,-0.1395,-0.1345,-0.123,0,0,0,0,0,-0.108,-0.1095,-0.1139,-0.1182,-0.1234,-0.1265,-0.1355,-0.1415,-0.1526,-0.1463,-0.1532,-0.1485,-0.1426,-0.1452,-0.1342,-0.1467,-0.1447,-0.1337,-0.141,-0.1465,-0.1481,-0.1424,0,0,0,0,0,0,-0.104,-0.1084,-0.1103,-0.1061,-0.1054,-0.1091,-0.1136,-0.1213,-0.1192,-0.1316,-0.1284,-0.1393,-0.1343,-0.1444,-0.1307,-0.131,-0.1325,-0.1368,-0.1364,-0.1456,-0.1471,-0.1483,-0.143,0,0,0,0,0]},{"header":{"parameterUnit":"m.s-1","parameterCategory":2,"la1":30.2991,"la2":30.254,"lo1":-89.0895,"lo2":-89.0444,"dy":0.0017,"dx":0.0017,"nx":28,"ny":28,"refTime":"2025-06-11T03:00:00:Z","depth":"4","parameterNumber":3,"parameterNumberName":"V-component_of_CURRENTS"},"data":[0,0,0,0,0,0,0,0,0,0,0,0,0,0,0,0,0,0,0,0,0,0,0,0,0,0,0,0,0,0,0,0,0,0,0,0,0,0,0,0,0,0,0,0,0,0,0,0,0,0,0,0,0,0,0,0,0,0,-0.0254,-0.0254,0,-0.0224,-0.0224,-0.0223,-0.0189,-0.0189,-0.0188,-0.0188,-0.0156,-0.0155,-0.0155,0,0,0,0,0,0,0,0,0,0,0,0,0,-0.0261,-0.0261,-0.0254,-0.0254,-0.0254,-0.0224,-0.0224,-0.0223,-0.0189,-0.0189,-0.0188,-0.0187,-0.0156,-0.0155,-0.0155,0,0,0,0,0,0,0,0,0,0,0,0,0,-0.0247,-0.0261,-0.0254,-0.0233,-0.0231,-0.0224,-0.0224,-0.0223,-0.0189,-0.0189,-0.0188,-0.0187,-0.0156,-0.0155,-0.0155,-0.0167,0,0,-0.0153,-0.0153,0,0,0,0,0,0,0,0,-0.0248,-0.0247,-0.0237,-0.0235,-0.0232,-0.021,-0.0214,-0.0204,-0.019,-0.0205,-0.0188,-0.0187,-0.0174,-0.0172,-0.0168,-0.0165,-0.0164,-0.0153,-0.0153,-0.0153,-0.0152,0,0,0,0,0,0,0,-0.0249,-0.0248,-0.0242,-0.0236,-0.0233,-0.0217,-0.0215,-0.0212,-0.0194,-0.0204,-0.0201,-0.0198,-0.0173,-0.0169,-0.0167,-0.0164,-0.0153,-0.0153,-0.0152,-0.0152,-0.0171,-0.0172,0,0,0,0,0,0,-0.0255,-0.0249,-0.0243,-0.0242,-0.0238,-0.0218,-0.0215,-0.0218,-0.0194,-0.019,-0.0199,-0.0197,-0.017,-0.0168,-0.0166,-0.0179,-0.0153,-0.0152,-0.0152,-0.017,-0.0171,-0.0172,0,0,0,0,0,0,-0.0255,-0.0255,-0.0245,-0.0244,-0.0242,-0.0219,-0.0222,-0.0217,-0.0214,-0.019,-0.0186,-0.0199,-0.0169,-0.0167,-0.0166,-0.0178,-0.0152,-0.0151,-0.0169,-0.017,-0.0172,-0.0206,0,0,0,0,0,0,-0.0255,-0.0255,-0.0265,-0.0245,-0.0242,-0.0252,-0.0222,-0.0217,-0.0213,-0.021,-0.019,-0.0186,-0.0169,-0.0167,-0.0165,-0.0177,-0.0151,-0.0168,-0.017,-0.0171,-0.0204,-0.0208,-0.0212,0,0,0,0,0,-0.0256,-0.0273,-0.0266,-0.0265,-0.0254,-0.0252,-0.025,-0.0231,-0.0214,-0.0222,-0.0203,-0.0186,-0.0176,-0.0167,-0.0165,-0.0176,-0.0167,-0.0169,-0.0171,-0.0202,-0.0207,-0.0212,0,0,0,0,0,0,-0.0283,-0.0271,-0.0262,-0.0276,-0.0269,-0.0247,-0.0253,-0.0237,-0.0228,-0.0223,-0.0196,-0.0192,-0.0198,-0.0185,-0.0176,-0.0188,-0.017,-0.0171,-0.0194,-0.0199,-0.0203,-0.0178,-0.015,0,0,0,0,0,-0.0294,-0.0303,-0.0287,-0.03,-0.0298,-0.0276,-0.0273,-0.0261,-0.0247,-0.0241,-0.0226,-0.0212,-0.0206,-0.02,-0.0197,-0.0201,-0.0146,-0.0208,-0.0212,-0.0216,-0.0195,-0.0112,-0.0106,-0.0178,-0.0178,-0.0178,0,0,-0.0309,-0.0302,-0.0309,-0.0306,-0.0297,-0.03,-0.0273,-0.0275,-0.0272,-0.0241,-0.0238,-0.023,-0.0213,-0.0218,-0.0219,-0.0205,-0.0173,-0.0218,-0.0221,-0.0198,-0.0113,-0.0106,-0.0099,-0.0179,-0.0179,-0.0179,0,0,-0.0339,-0.0336,-0.0352,-0.0348,-0.034,-0.0327,-0.0329,-0.0312,-0.0301,-0.0301,-0.0277,-0.0266,-0.0266,-0.0244,-0.0235,-0.0259,-0.0202,-0.0272,-0.0265,-0.0186,-0.0178,-0.017,-0.011,-0.0096,-0.0268,-0.0268,-0.0268,0,-0.0356,-0.0369,-0.0357,-0.0366,-0.0361,-0.034,-0.0348,-0.0338,-0.0323,-0.0301,-0.0308,-0.0272,-0.0272,-0.0241,-0.0259,-0.0266,-0.0213,-0.0247,-0.0187,-0.0178,-0.017,-0.0109,-0.0094,-0.027,-0.027,-0.027,-0.0269,0,-0.0391,-0.04,-0.0408,-0.0409,-0.0406,-0.0412,-0.0392,-0.0386,-0.037,-0.0343,-0.0316,-0.0304,-0.0269,-0.0285,-0.0283,-0.0232,-0.0214,-0.0205,-0.0167,-0.0164,-0.0102,-0.0085,-0.0273,-0.0272,-0.0271,-0.0271,0,0,-0.0424,-0.0432,-0.0434,-0.0436,-0.0426,-0.0426,-0.0418,-0.0391,-0.0362,-0.0351,-0.0299,-0.0306,-0.0274,-0.0261,-0.0251,-0.0196,-0.012,-0.018,-0.0175,-0.0107,0.0055,0.0014,0.0028,-0.0091,-0.0088,-0.0086,0.0068,0,-0.0451,-0.0477,-0.0468,-0.0484,-0.049,-0.0461,-0.045,-0.042,-0.0384,-0.0333,-0.0289,-0.0255,-0.0271,-0.0254,-0.0199,-0.0141,-0.0074,-0.0163,0.0032,0.0037,0.0012,0.0047,-0.0076,0.0081,0.0085,0.0088,0.009,0,-0.0481,-0.0492,-0.0517,-0.0505,-0.0504,-0.051,-0.0464,-0.0451,-0.0369,-0.0333,-0.0267,-0.0221,-0.0153,-0.0164,-0.0023,-0.0075,-0.0008,0.0041,0.0049,0.0043,0.0028,0.0081,0.0121,0.0119,0.0116,0.0114,0.0112,0,-0.0504,-0.0519,-0.0539,-0.054,-0.0529,-0.0526,-0.0516,-0.0452,-0.0423,-0.0323,-0.0276,-0.0174,-0.0121,-0.0017,0.0059,0.0037,0.0227,0.0215,0.0252,0.025,0.0257,0.0248,0.0349,0.0348,0.0348,0.0348,0.0347,0,-0.0525,-0.0541,-0.0557,-0.0569,-0.0582,-0.0557,-0.0543,-0.0505,-0.043,-0.0383,-0.028,-0.0215,-0.0078,0.0035,0.0106,0.0224,0.0273,0.0276,0.0298,0.0232,0.0218,0.0268,0.0257,0.0353,0.0352,0.0351,0.035,0,-0.0545,-0.0557,-0.0583,-0.0592,-0.0599,-0.0609,-0.0593,-0.0569,-0.049,-0.0419,-0.0385,-0.0223,-0.0076,0.0057,0.0236,0.0276,0.0392,0.0426,0.0346,0.0357,0.0355,0.034,0.0504,0.0504,0.0504,0.0504,0.0504,0,-0.0556,-0.0575,-0.0615,-0.0641,-0.0654,-0.0667,-0.0671,-0.0615,-0.0581,-0.0436,-0.0397,-0.0221,-0.0114,0.0117,0.0249,0.0427,0.0429,0.0494,0.0426,0.0372,0.0378,0.0362,0.0347,0.0504,0.0504,0.0504,0.0504,0,-0.0576,-0.0597,-0.0621,-0.0682,-0.0712,-0.073,-0.0728,-0.0705,-0.0619,-0.0546,-0.0402,-0.0254,-0.0071,0.0105,0.0253,0.0365,0.0452,0.0495,0.0495,0.0432,0.0374,0.0376,0.0361,0.0505,0.0505,0.0505,0.0505,0,-0.0593,-0.0621,-0.0665,-0.0711,-0.0757,-0.0778,-0.0771,-0.0722,-0.0675,-0.0516,-0.0474,-0.0262,-0.0127,0.0076,0.0201,0.0321,0.0339,0.0347,0.0355,0.0356,0.0248,0.0148,0.0252,0,0,0,0,0,-0.0605,-0.0639,-0.0689,-0.0741,-0.0787,-0.0811,-0.0797,-0.0772,-0.069,-0.0608,-0.0539,-0.0376,-0.0137,-0.0011,0.0102,0.0191,0.0352,0.0324,0.0361,0.0506,0.0506,0.0397,0,0,0,0,0,0,-0.0617,-0.0667,-0.069,-0.0755,-0.0797,-0.0838,-0.0834,-0.078,-0.072,-0.0622,-0.0491,-0.0386,-0.0151,-0.0215,0.009,0.0136,0.0165,0.0454,0.0455,0.0506,0.0506,0.0506,0.0394,0,0,0,0,0]}]]